Weather reports worldwide

Advertisment
Istres, France (7647): temperature & dewpoint: 11.08.2018 01:00:00 - 17.08.2018 01:00:00 (CEST)Istres, France (7647): temperature 5cm: 11.08.2018 01:00:00 - 17.08.2018 01:00:00 (CEST)Istres, France (7647): wind speed & gusts: 11.08.2018 01:00:00 - 17.08.2018 01:00:00 (CEST)Istres, France (7647): wind direction: 11.08.2018 01:00:00 - 17.08.2018 01:00:00 (CEST)Istres, France (7647): reduced air pressure: 11.08.2018 01:00:00 - 17.08.2018 01:00:00 (CEST)Istres, France (7647): visibility: 11.08.2018 01:00:00 - 17.08.2018 01:00:00 (CEST)Istres, France (7647): precipitation: 11.08.2018 01:00:00 - 17.08.2018 01:00:00 (CEST)
Date & Time tt [°C] td [°C] tt 5cm [°C] ff [km/h] ff [kn] fx [km/h] fx [kn] dd ppp [hPa] vv [km] rr [mm]
17.08.2018 01:00:00 21,2 21,2 20,8 5 3 8 4 NNE 1015,2 37 0,0
17.08.2018 00:00:00 22,6 22,1 21,5 0 0 8 4 N 1015,6 30 0,0
16.08.2018 23:00:00 23,5 22,1 22,5 6 3 7 4 S 1015,2 53 0,0
16.08.2018 22:00:00 23,9 20,8 23,2 4 2 9 5 SW 1015,0 60 0,0
16.08.2018 21:00:00 25,0 18,7 24,6 8 4 16 9 W 1014,5 60 0,0
16.08.2018 20:00:00 27,5 16,1 27,9 13 7 21 11 SSW 1013,9 55 0,0
16.08.2018 19:00:00 28,8 16,7 33,0 11 6 21 11 S 1014,0 51 0,0
16.08.2018 18:00:00 29,2 15,0 35,8 15 8 23 12 SSE 1014,3 54 0,0
16.08.2018 17:00:00 30,0 15,7 37,0 15 8 24 13 S 1014,7 48 0,0
16.08.2018 16:00:00 30,0 14,9 36,9 18 10 28 15 S 1015,1 47 0,0
16.08.2018 15:00:00 30,1 14,2 37,3 18 10 31 17 S 1015,4 48 0,0
16.08.2018 14:00:00 30,0 14,1 37,0 20 11 33 18 S 1015,6 49 0,0
16.08.2018 13:00:00 29,7 14,3 37,4 19 11 28 15 S 1015,8 60 0,0
16.08.2018 12:00:00 30,0 14,9 34,8 15 8 22 12 SSE 1015,8 60 0,0
16.08.2018 11:00:00 28,5 17,1 32,2 8 4 14 7 ESE 1015,8 50 0,0
16.08.2018 10:00:00 26,9 16,8 29,6 5 3 12 6 E 1015,6 20 0,0
16.08.2018 09:00:00 25,0 17,0 24,3 6 3 10 5 E 1015,7 57 0,0
16.08.2018 08:00:00 21,0 18,8 18,5 6 3 12 6 NNE 1015,5 17 0,0
16.08.2018 07:00:00 18,7 18,5 18,3 11 6 16 8 NNE 1015,4 45 0,0
16.08.2018 06:00:00 18,9 18,9 18,5 11 6 15 8 NNE 1015,3 52 0,0
16.08.2018 05:00:00 19,1 19,1 18,8 7 4 12 6 NNE 1015,2 46 0,0
16.08.2018 04:00:00 19,9 19,9 19,3 3 2 7 4 ENE 1015,5 40 0,0
16.08.2018 03:00:00 21,1 19,7 19,6 5 3 6 4 ESE 1015,6 39 0,0
16.08.2018 02:00:00 21,7 19,6 20,1 3 2 4 2 S 1015,8 47 0,0
16.08.2018 01:00:00 22,3 19,8 20,8 2 1 5 3 SW 1015,7 54 0,0
16.08.2018 00:00:00 22,9 20,4 21,6 4 2 7 4 SW 1015,8 60 0,0
15.08.2018 23:00:00 24,7 17,2 23,0 3 1 12 6 W 1015,6 60 0,0
15.08.2018 22:00:00 26,1 15,8 25,2 10 5 16 9 NW 1015,7 60 0,0
15.08.2018 21:00:00 27,9 15,9 27,0 13 7 18 10 NW 1015,1 60 0,0
15.08.2018 20:00:00 30,3 14,4 30,5 14 7 23 12 W 1015,0 55 0,0
15.08.2018 19:00:00 31,5 14,6 35,2 7 4 23 12 W 1015,0 52 0,0
15.08.2018 18:00:00 31,4 13,6 35,9 11 6 25 13 WSW 1015,2 44 0,0
15.08.2018 17:00:00 31,7 14,4 37,4 10 6 24 13 WNW 1015,4 37 0,0
15.08.2018 16:00:00 31,5 14,2 37,8 13 7 23 12 WSW 1015,5 30 0,0
15.08.2018 15:00:00 30,6 15,1 37,9 8 4 18 10 NW 1015,9 20 0,0
15.08.2018 14:00:00 29,5 14,1 37,1 5 3 16 9 SSE 1016,1 18 0,0
15.08.2018 13:00:00 29,0 14,8 35,5 7 4 20 11 NNW 1016,1 20 0,0
15.08.2018 12:00:00 27,9 14,9 33,6 10 5 19 11 N 1016,3 40 0,0
15.08.2018 11:00:00 26,3 14,7 31,7 10 6 18 10 N 1016,4 39 0,0
15.08.2018 10:00:00 24,9 14,7 27,8 11 6 26 14 N 1016,1 23 0,0
15.08.2018 09:00:00 23,2 14,2 25,1 19 11 30 16 N 1016,0 25 0,0
15.08.2018 08:00:00 21,8 14,7 20,1 14 8 21 12 N 1015,9 27 0,0
15.08.2018 07:00:00 20,7 14,6 20,1 13 7 24 13 NNW 1015,5 37 0,0
15.08.2018 06:00:00 21,2 13,9 20,5 16 9 26 14 NNW 1015,3 60 0,0
15.08.2018 05:00:00 21,6 13,8 20,9 16 9 30 16 NNW 1015,1 60 0,0
15.08.2018 04:00:00 22,1 13,4 21,4 17 9 37 20 NNW 1014,9 60 0,0
15.08.2018 03:00:00 22,9 13,1 22,2 28 15 46 25 NNW 1014,7 60 0,0
15.08.2018 02:00:00 23,3 13,2 22,7 29 16 48 26 NNW 1014,4 60 0,0
15.08.2018 01:00:00 24,0 13,2 23,3 31 17 55 30 NNW 1014,3 60 0,0
15.08.2018 00:00:00 24,4 13,6 23,8 39 21 62 33 NNW 1013,6 60 0,0
14.08.2018 23:00:00 25,1 13,6 24,4 45 24 67 36 NNW 1013,9 60 0,0
14.08.2018 22:00:00 25,5 14,0 25,0 46 25 72 39 NNW 1013,9 60 0,0
14.08.2018 21:00:00 26,1 13,6 25,6 48 26 79 43 NNW 1013,6 59 0,0
14.08.2018 20:00:00 27,2 13,5 27,3 54 29 79 42 NNW 1012,6 11 0,0
14.08.2018 19:00:00 28,2 13,7 30,1 53 29 82 44 NNW 1011,9 3,8 0,0
14.08.2018 18:00:00 28,9 13,2 31,7 55 30 75 41 NNW 1011,7 3,9 0,0
14.08.2018 17:00:00 29,1 14,1 31,3 51 28 68 37 NW 1012,1 7 0,0
14.08.2018 16:00:00 29,1 14,1 33,1 48 26 65 35 NNW 1012,4 11 0,0
14.08.2018 15:00:00 29,0 12,8 33,2 42 23 61 33 NW 1012,8 16 0,0
14.08.2018 14:00:00 28,8 14,6 31,3 42 23 56 30 NNW 1013,5 20 0,0
14.08.2018 13:00:00 27,3 14,7 30,7 37 20 54 29 NNW 1013,9 22 0,0
14.08.2018 12:00:00 26,6 15,9 29,7 35 19 51 28 NW 1014,4 23 0,0
14.08.2018 11:00:00 25,6 17,8 28,6 34 19 51 28 WNW 1014,8 15 0,0
14.08.2018 10:00:00 23,9 17,4 26,0 28 15 45 25 WNW 1015,1 17 0,0
14.08.2018 09:00:00 22,8 17,9 24,2 27 15 39 21 WNW 1014,8 22 0,0
14.08.2018 08:00:00 21,3 19,2 19,2 14 8 22 12 WNW 1014,5 26 0,0
14.08.2018 07:00:00 19,4 19,4 19,0 14 8 24 13 WNW 1014,2 27 0,0
14.08.2018 06:00:00 19,6 19,6 19,0 14 7 20 11 W 1013,9 60 0,0
14.08.2018 05:00:00 19,9 19,9 19,5 9 5 16 9 W 1013,7 27 0,0
14.08.2018 04:00:00 20,6 20,6 20,2 16 8 24 13 NW 1013,6 28 0,0
14.08.2018 03:00:00 20,7 20,7 20,4 16 8 22 12 NW 1013,5 41 0,0
14.08.2018 02:00:00 21,0 21,0 20,6 10 5 22 12 WNW 1013,8 42 0,0
14.08.2018 01:00:00 21,5 21,5 21,1 13 7 19 11 NW 1013,7 42 0,0
14.08.2018 00:00:00 21,9 21,9 21,4 9 5 15 8 NW 1013,6 45 0,0
13.08.2018 23:00:00 22,9 22,9 22,5 9 5 13 7 NNW 1013,4 35 0,0
13.08.2018 22:00:00 23,9 23,9 23,0 8 4 13 7 W 1012,8 35 0,0
13.08.2018 21:00:00 25,0 23,1 23,4 4 2 11 6 SSW 1012,3 30 0,0
13.08.2018 20:00:00 25,5 21,2 26,0 9 5 23 12 SSW 1012,3 20 0,0
13.08.2018 19:00:00 25,5 23,6 26,8 19 10 31 17 S 1012,0 47 0,0
13.08.2018 18:00:00 25,9 24,3 28,9 22 12 32 18 SSE 1011,8 22 0,0
13.08.2018 17:00:00 27,1 23,8 31,4 23 12 34 18 S 1012,2 25 0,0
13.08.2018 16:00:00 26,7 22,8 31,7 21 11 35 19 S 1012,8 29 0,0
13.08.2018 15:00:00 26,8 23,5 32,0 19 10 31 17 SSW 1013,4 31 0,0
13.08.2018 14:00:00 27,3 23,1 29,2 19 10 29 16 S 1013,5 20 0,0
13.08.2018 13:00:00 26,1 21,7 29,4 7 4 22 12 SE 1013,8 20 0,0
13.08.2018 12:00:00 26,0 19,4 27,9 13 7 28 15 E 1013,8 58 0,0
13.08.2018 11:00:00 23,9 19,8 25,6 18 10 33 18 E 1013,8 58 0,0
13.08.2018 10:00:00 22,5 21,1 21,9 23 12 33 18 ENE 1013,5 20 0,0
13.08.2018 09:00:00 20,2 20,2 20,3 11 6 23 13 NE 1013,2 54 -
13.08.2018 08:00:00 - - 19,6 - - - - - - 56 -
13.08.2018 07:00:00 19,4 19,4 20,0 9 5 - - NE 1013,2 26 0,0
13.08.2018 06:00:00 19,4 19,4 18,8 19 11 - - ESE 1012,5 2,1 -
13.08.2018 05:00:00 19,2 19,2 18,4 29 16 - - NW 1013,0 0,3 9,9
13.08.2018 04:00:00 24,3 24,3 20,6 14 7 - - E 1011,9 20 0,0
13.08.2018 03:00:00 22,9 21,0 20,3 12 7 - - ENE 1013,2 17 0,2
13.08.2018 02:00:00 24,3 19,6 24,6 21 11 - - NNW 1014,6 29 0,0
13.08.2018 01:00:00 25,6 25,6 25,5 11 6 - - SE 1014,4 25 0,0
13.08.2018 00:00:00 25,7 25,7 25,6 9 5 - - SE 1014,5 25 0,0
12.08.2018 23:00:00 26,0 26,0 25,9 16 9 - - SSE 1015,0 26 0,0
12.08.2018 22:00:00 26,4 26,4 26,4 16 9 - - S 1015,7 30 0,0
12.08.2018 21:00:00 26,4 26,4 26,6 22 12 - - S 1015,0 27 0,0
12.08.2018 20:00:00 26,6 25,7 27,5 23 12 - - SSE 1014,4 28 0,0
12.08.2018 19:00:00 27,8 23,4 29,9 19 11 31 17 S 1014,5 27 0,0
12.08.2018 18:00:00 29,0 23,4 35,1 22 12 31 17 SSE 1015,1 18 0,0
12.08.2018 17:00:00 29,5 22,0 36,0 22 12 39 21 S 1015,4 20 0,0
12.08.2018 16:00:00 29,5 18,3 36,8 27 15 39 21 S 1015,9 25 0,0
12.08.2018 15:00:00 29,9 19,9 37,1 28 15 38 20 S 1016,6 32 0,0
12.08.2018 14:00:00 30,8 13,1 37,9 25 14 39 21 S 1016,8 41 0,0
12.08.2018 13:00:00 32,0 11,2 37,8 22 12 29 16 S 1017,0 51 0,0
12.08.2018 12:00:00 30,9 12,3 35,5 10 6 20 11 ESE 1017,2 19 0,0
12.08.2018 11:00:00 28,8 10,9 31,7 9 5 15 8 ESE 1017,2 54 0,0
12.08.2018 10:00:00 26,4 12,8 28,1 9 5 16 9 E 1017,3 58 0,0
12.08.2018 09:00:00 23,6 12,6 22,6 9 5 19 10 ENE 1017,3 60 0,0
12.08.2018 08:00:00 19,8 12,8 17,8 11 6 19 10 NNE 1017,2 35 0,0
12.08.2018 07:00:00 17,6 13,5 16,5 10 5 16 8 NNE 1017,1 24 0,0
12.08.2018 06:00:00 17,8 12,9 16,2 5 3 8 5 NNE 1017,0 60 0,0
12.08.2018 05:00:00 18,1 12,8 16,1 2 1 7 4 S 1017,2 60 0,0
12.08.2018 04:00:00 18,5 12,5 16,8 5 3 10 5 N 1017,4 60 0,0
12.08.2018 03:00:00 19,6 11,9 18,5 9 5 10 6 W 1017,6 60 0,0
12.08.2018 02:00:00 20,0 12,0 19,1 8 4 15 8 WSW 1018,0 60 0,0
12.08.2018 01:00:00 21,7 11,7 20,9 11 6 18 10 W 1018,1 60 0,0
12.08.2018 00:00:00 22,7 12,3 21,9 11 6 24 13 WSW 1018,2 60 0,0
11.08.2018 23:00:00 23,7 10,7 23,0 15 8 19 10 WSW 1018,2 60 0,0
11.08.2018 22:00:00 25,1 11,3 23,9 11 6 26 14 NW 1017,8 60 0,0
11.08.2018 21:00:00 27,2 10,4 26,5 19 10 29 16 NW 1017,4 60 0,0
11.08.2018 20:00:00 29,6 9,2 30,3 16 9 32 17 NNW 1017,2 59 0,0
11.08.2018 19:00:00 30,5 8,8 32,0 23 12 40 21 NNW 1017,4 34 0,0
11.08.2018 18:00:00 29,6 10,2 31,4 26 14 41 22 NNW 1017,7 35 0,0
11.08.2018 17:00:00 30,1 6,0 35,3 30 16 44 24 NNW 1018,4 18 0,0
11.08.2018 16:00:00 30,7 8,4 36,2 29 16 49 26 NNW 1019,0 19 0,0
11.08.2018 15:00:00 30,1 9,6 35,0 31 17 50 27 NW 1019,6 18 0,0
11.08.2018 14:00:00 29,0 9,2 34,3 36 20 51 27 NNW 1019,9 20 0,0
11.08.2018 13:00:00 28,0 8,8 32,9 33 18 47 25 NW 1020,4 22 0,0
11.08.2018 12:00:00 27,1 9,9 30,8 32 18 45 24 NW 1020,8 20 0,0
11.08.2018 11:00:00 25,6 10,2 28,9 27 15 42 23 NNW 1021,2 17 0,0
11.08.2018 10:00:00 23,9 10,6 25,8 28 15 44 24 NNW 1021,2 17 0,0
11.08.2018 09:00:00 21,9 10,1 23,4 30 16 47 26 NNW 1021,4 18 0,0
11.08.2018 08:00:00 20,8 10,9 19,9 26 14 35 19 NNW 1021,4 21 0,0
11.08.2018 07:00:00 20,1 11,3 19,0 19 11 28 15 NNW 1021,3 21 0,0
11.08.2018 06:00:00 20,1 11,8 18,6 16 9 26 14 NNW 1020,9 60 0,0
11.08.2018 05:00:00 19,7 12,7 18,0 11 6 15 8 NNW 1021,2 60 0,0
11.08.2018 04:00:00 19,5 13,7 18,9 13 7 17 9 NNW 1021,4 60 0,0
11.08.2018 03:00:00 20,5 14,6 19,6 12 7 14 7 NW 1021,6 60 0,0
11.08.2018 02:00:00 23,1 12,1 22,3 12 6 18 10 NNW 1021,8 60 0,0
11.08.2018 01:00:00 23,6 13,5 20,7 13 7 16 9 NNW 1022,0 60 0,0

tt = temperature
td = dewpoint
tt 5cm = temperature 5cm
ff = wind speed
fx = gusts
dd = wind direction
ppp = reduced air pressure
vv = visibility
rr = precipitation

Next stations